#timestamp,LO_Frequency,Hit,StdDev 
1618688495.8,286047024.0,P
1618688515.6,286047026.6,P
1618688535.5,286047026.2,P
1618688555.3,286047026.1,Y
1618688575.1,286047001.2,P
1618688595.9,286046998.1,N
1618688615.7,286047000.0,N
1618688635.5,286047000.3,N
1618688655.4,286047002.6,N
1618688675.2,286047001.7,N
1618688695.1,286047003.9,N
1618688696.0,286047003.9,N
1618688715.8,286047001.8,N
1618688735.6,286047001.9,N
1618688755.5,286046999.7,N
1618688775.3,286047002.3,N
1618688795.1,286047002.2,N
1618688815.9,286047002.3,N
1618688835.7,286047001.3,N
1618688855.6,286047001.8,N
1618688875.4,286047001.4,N
1618688895.2,286047004.2,N
1618688915.1,286047003.1,N
1618688916.0,286047003.1,N
1618688935.8,286047001.9,N
1618688955.6,286047003.7,N
1618688975.5,286047003.3,N
1618688995.3,286047003.5,N
1618689015.2,286047001.5,N
1618689035.9,286047003.5,N
1618689055.7,286047004.0,N
1618689075.6,286047001.7,N
1618689095.4,286047003.7,N
1618689115.2,286047003.1,N
1618689135.1,286047006.1,Y
1618689136.0,286047006.1,P
1618689155.8,286047004.8,N
1618689175.7,286047007.1,P
1618689195.5,286047006.7,Y
1618689215.3,286047002.5,P
1618689235.2,286047002.7,N
1618689255.0,286047002.4,N
1618689255.9,286047002.4,N
1618689275.7,286047002.3,N
1618689295.6,286046999.7,N
1618689315.4,286047000.6,N
1618689335.3,286046998.5,N
1618689355.1,286047001.1,N
1618689356.0,286047001.1,N
1618689375.8,286046998.1,N
1618689395.7,286047002.2,N
1618689415.5,286047001.6,N
1618689435.3,286047002.6,N
1618689455.2,286046999.9,N
1618689475.0,286046998.8,N
1618689475.9,286046998.8,N
1618689495.8,286047000.8,N
1618689515.6,286047001.2,N
1618689535.4,286047000.0,N
1618689555.3,286047000.8,N
1618689605.1,286046997.1,E
